Location: Lake Arresoe
(56.0000°N, 12.5000°E)
Time: 02:25:23
(UTC+02:00)

Cosmos 1674 - Visible Passes

Search period start: 18 June 2018 00:00
Search period end: 28 June 2018 00:00
Orbit: 498 x 520 km, 82.5° (Epoch: 17 June)

Date Brightness Start Highest point End Pass type
(mag) Time Alt. Az. Time Alt. Az. Time Alt. Az.
18 Jun 4.8 00:19:14 10° WSW 00:22:23 24° WNW 00:25:34 10° N visible
19 Jun 4.6 00:01:48 10° SW 00:05:09 28° WNW 00:08:31 10° N visible
19 Jun 4.3 23:44:25 10° SW 23:47:55 33° WNW 23:51:28 10° N visible
20 Jun 4.0 23:27:04 10° SW 23:30:42 40° WNW 23:34:23 10° N visible
21 Jun 3.6 23:09:46 10° SSW 23:13:29 49° WNW 23:17:16 10° N visible
23 Jun 5.9 00:32:10 10° WNW 00:32:45 10° NW 00:33:21 10° NW visible
24 Jun 5.7 00:13:51 10° W 00:15:27 12° NW 00:17:02 10° NNW visible
24 Jun 5.6 23:56:01 10° W 23:58:09 14° WNW 00:00:17 10° NNW visible
25 Jun 5.5 23:38:19 10° W 23:40:51 17° WNW 23:43:25 10° NNW visible
26 Jun 5.5 23:20:44 10° WSW 23:23:35 19° WNW 23:26:28 10° NNW visible
27 Jun 5.3 23:03:13 10° WSW 23:06:19 23° WNW 23:09:28 10° N visible
